Regional Weather Roundup
Issued by NWS

Home | Current Version | Previous Version | Graphics & Text | Print | Product List | Glossary Off
Versions: 1 2 3 4 5 6 7 8 9 10 11 12 13 14 15 16 17 18 19 20 21 22 23 24 25 26 27

000
ASUS43 KDMX 230207
RWRIA

WEATHER ROUNDUP FOR IOWA
NATIONAL WEATHER SERVICE DES MOINES IA
900 PM CDT TUE APR 22 2014

NOTE: "FAIR" INDICATES FEW OR NO CLOUDS BELOW 12,000 FEET WITH NO
SIGNIFICANT WEATHER AND/OR OBSTRUCTIONS TO VISIBILITY.

* - THESE STATIONS ARE NOT NWS STATIONS...THUS NOT UNDER NWS
QUALITY CONTROL.  THEY ALSO DO NOT REPORT WEATHER SUCH
AS PRECIPITATION OR FOG.

IAZ001>003-012>014-020>022-031>034-043>046-230300-
   NORTHWEST IOWA

CITY           SKY/WX    TMP DP  RH WIND       PRES   REMARKS
CARROLL *      MOCLDY    59  32  36 E8        30.01R
CHEROKEE *     CLOUDY    57  36  44 SE6       30.00S
DENISON *      CLOUDY    57  36  44 SE6       29.99R
LE MARS *      MOCLDY    59  36  41 SE8       29.98S
ORANGE CITY *  CLOUDY    61  34  36 SE6       29.99R
SHELDON *      CLOUDY    57  36  44 SE9       29.98S
SIOUX CITY     CLOUDY    62  35  36 SE12      29.97R
SPENCER        CLOUDY    58  36  43 SE8       30.00S
STORM LAKE *   MOCLDY    54  36  50 SE8       30.02R
$$

IAZ055>058-069>071-079>083-090>094-230300-
   SOUTHWEST IOWA

CITY           SKY/WX    TMP DP  RH WIND       PRES   REMARKS
ATLANTIC *     MOCLDY    61  32  33 E7        30.00R
AUDUBON *      MOCLDY    57  28  33 E6        30.02R
CLARINDA *     PTCLDY    61  32  33 SE5       30.01R
COUNCIL BLFS * CLOUDY    61  37  41 SE8       29.98R
CRESTON *      MOCLDY    55  32  41 E6        30.02R
HARLAN  *      MOCLDY    57  37  47 E7        30.03R
LAMONI         PTCLDY    58  32  37 E3        30.02R
RED OAK *      CLOUDY    61  36  39 E5        30.00R
SHENANDOAH *   PTCLDY    57  37  47 E8        30.00R
$$

IAZ047>049-059>061-072>074-084-230300-
   CENTRAL IOWA

CITY           SKY/WX    TMP DP  RH WIND       PRES   REMARKS
AMES           PTCLDY    56  33  42 NE6       30.04R
ANKENY *       MOCLDY    57  34  41 NE5       30.04R
CHARITON *     PTCLDY    55  32  41 NE5       30.03R
DES MOINES     PTCLDY    61  31  32 E6        30.03R
GRINNELL*      CLEAR     52  30  43 N6        30.04R
KNOXVILLE *    MOCLDY    57  32  38 NE5       30.02R
MARSHALLTOWN   PTCLDY    51  34  52 N8        30.04R
NEWTON *       PTCLDY    55  32  41 NE6       30.04R
PELLA *        CLEAR     54  34  47 NE3       30.04R
PERRY *        MOCLDY    59  28  31 E7        30.03R
$$

IAZ004>006-015-016-023>025-035-036-230300-
   NORTH CENTRAL IOWA

CITY           SKY/WX    TMP DP  RH WIND       PRES   REMARKS
ALGONA *       CLOUDY    57  36  44 SE7       30.04S
CLARION *      CLOUDY    54  43  66 E6        30.05R
ESTHERVILLE    CLOUDY    56  36  47 E9        30.01S
FORT DODGE *   CLOUDY    55  37  50 E8        30.04S
MASON CITY     PTCLDY    47  38  71 E6        30.07R
FOREST CITY *  CLEAR     52  34  50 E5        30.04R
IOWA FALLS *     N/A     54  36  50 NE5       30.06R
$$

IAZ007>011-017>019-026>030-037>042-050>054-066-230300-
   NORTHEAST IOWA

CITY           SKY/WX    TMP DP  RH WIND       PRES   REMARKS
CEDAR RAPIDS   CLEAR     49  32  52 N7        30.03R
CHARLES CITY * CLOUDY    48  36  61 N5        30.06R
CLINTON *      CLEAR     45  27  49 N9        30.05R
DECORAH *      CLEAR     50  25  37 N6        30.05R
DUBUQUE        CLEAR     46  26  45 N7        30.03R
MONTICELLO *   CLEAR     50  28  43 CALM      30.04R
OELWEIN *      CLEAR    N/A N/A N/A NW6       30.06R
WATERLOO       CLEAR     45  34  65 NE8       30.04R
$$

IAZ064-065-067-068-078-230300-
   EAST CENTRAL IOWA

CITY           SKY/WX    TMP DP  RH WIND       PRES   REMARKS
DAVENPORT      CLEAR     47  31  53 N7        30.03R
IOWA CITY      CLEAR     53  33  46 NW6       30.05R
MT. PLEASANT * CLEAR     52  28  40 N6        30.03R
MUSCATINE *    CLEAR     52  30  43 N8        30.03R
QUAD CITIES    CLEAR     55  25  31 N5        30.02R
$$

IAZ062-063-075>077-085>089-095>099-230300-
   SOUTHEAST IOWA

CITY           SKY/WX    TMP DP  RH WIND       PRES   REMARKS
BURLINGTON     CLEAR     55  28  35 N5        30.01R
FAIRFIELD *    CLEAR     48  32  53 N5        30.04R
FORT MADISON * CLEAR     54  30  40 N5        30.03R
KEOKUK *       CLEAR     57  30  35 N3        30.01R
OSKALOOSA *      N/A     52  34  50 NE5       30.04R
CENTERVILLE *  CLEAR     54  34  47 NE3       30.04R
OTTUMWA        CLEAR     54  31  41 N5        30.03R
WASHINGTON *   CLEAR     52  30  43 N7        30.03R
$$

ABBREVIATIONS USED IN REMARKS
   TC - TEMPERATURES IN CELSIUS
  WCI - WIND CHILL INDEX
   HX - HEAT INDEX
  VSB - VISIBILITY
$$




USA.gov is the U.S. government's official web portal to all federal, state and local government web resources and services.